[[{"header":{"parameterUnit":"m.s-1","parameterCategory":1,"la1":30.2992,"la2":30.254,"lo1":-89.0895,"lo2":-89.0443,"dy":0.0025,"dx":0.0025,"nx":19,"ny":19,"refTime":"2026-05-18T03:00:00:Z","depth":0,"parameterNumber":2,"parameterNumberName":"U-component_of_WINDS"},"data":[0,0,0,-3.3521,-3.3524,-3.364,-3.364,-3.3792,-3.3794,0,0,0,0,0,0,0,0,0,0,0,-3.349,-3.3491,-3.3521,-3.3524,-3.3639,-3.364,-3.3792,-3.3794,0,0,0,0,0,0,0,0,0,0,0,-3.3489,-3.3491,-3.3492,-3.3524,-3.3639,-3.364,-3.3792,-3.3703,0,0,0,0,0,0,0,0,0,0,-3.359,-3.3563,-3.349,-3.3492,-3.3525,-3.3639,-3.364,-3.3699,-3.3708,-3.3742,0,-3.3772,0,-3.3786,-3.3804,-3.3805,0,0,0,-3.3522,-3.3555,-3.3584,-3.3492,-3.3526,-3.3639,-3.3587,-3.3704,-3.3715,-3.3755,-3.3775,-3.378,-3.3788,-3.3805,-3.3806,-3.4006,-3.4007,0,0,-3.3516,-3.3512,-3.3576,-3.3591,-3.3574,-3.3583,-3.359,-3.3711,-3.3732,-3.3775,-3.3784,-3.3791,-3.3806,-3.3808,-3.4005,-3.4006,0,0,0,-3.3499,-3.3508,-3.3533,-3.3585,-3.3606,-3.3587,-3.3595,-3.3726,-3.3735,-3.3785,-3.3792,-3.3807,-3.3809,-3.4004,-3.4005,-3.4052,0,0,0,-3.3495,-3.3498,-3.3531,-3.353,-3.3604,-3.3667,-3.3608,-3.3727,-3.374,-3.3792,-3.3807,-3.3811,-3.4003,-3.4005,-3.4048,-3.4074,0,0,0,-3.3481,-3.3496,-3.3514,-3.3529,-3.3579,-3.3666,-3.3681,-3.373,-3.3745,-3.3805,-3.3811,-3.4002,-3.4004,-3.4045,-3.4069,-3.4125,0,0,0,-3.3466,-3.3554,-3.3514,-3.3616,-3.3578,-3.3694,-3.368,-3.3767,-3.3824,-3.3808,-3.4003,-3.4005,-3.4044,-3.4065,-3.4121,-3.417,-3.4191,0,0,-3.3575,-3.3567,-3.3627,-3.3595,-3.3717,-3.3677,-3.3806,-3.3862,-3.3871,-3.396,-3.3965,-3.4049,-3.4068,-3.4124,-3.4309,-3.4326,0,0,0,-3.366,-3.3703,-3.3736,-3.379,-3.3835,-3.3876,-3.3912,-3.3933,-3.4009,-3.3916,-3.4086,-3.4097,-3.413,-3.4153,-3.4167,-3.4195,-3.4016,-3.4016,-3.4016,-3.3808,-3.3815,-3.3914,-3.3936,-3.3989,-3.4026,-3.4069,-3.4103,-3.4095,-3.4136,-3.4161,-3.4273,-3.4301,-3.4311,-3.434,-3.4189,-3.419,-3.419,-3.419,-3.3967,-3.4028,-3.4016,-3.4108,-3.4115,-3.4192,-3.4232,-3.4224,-3.4296,-3.4254,-3.4283,-3.4235,-3.4329,-3.4354,-3.4193,-3.4193,-3.4192,-3.4192,-3.4192,-3.4063,-3.4094,-3.4118,-3.4197,-3.4258,-3.4277,-3.4347,-3.4352,-3.4356,-3.4386,-3.4413,-3.4412,-3.4411,-3.4399,-3.4399,-3.44,-3.44,-3.44,-3.44,-3.4153,-3.4179,-3.4238,-3.4293,-3.4328,-3.4376,-3.4415,-3.445,-3.449,-3.4487,-3.4488,-3.4475,-3.4337,-3.4301,-3.4406,-3.4405,-3.4405,-3.4404,-3.4404,-3.4309,-3.4275,-3.4365,-3.4401,-3.4466,-3.4526,-3.4531,-3.4602,-3.4632,-3.4667,-3.4649,-3.4546,-3.4538,-3.4527,-3.4498,-3.4648,-3.4647,-3.4648,-3.4648,-3.4389,-3.4386,-3.448,-3.4536,-3.4592,-3.4606,-3.4708,-3.474,-3.4767,-3.4786,-3.4765,-3.4727,-3.4716,-3.4714,-3.47,-3.4672,-3.4862,-3.4863,-3.4863,-3.4485,-3.4488,-3.4573,-3.4599,-3.4651,-3.4695,-3.4791,-3.4857,-3.4881,-3.4872,-3.4801,-3.4792,-3.473,-3.471,-3.4697,-3.4673,-3.4623,0,0]},{"header":{"parameterUnit":"m.s-1","parameterCategory":1,"la1":30.2992,"la2":30.254,"lo1":-89.0895,"lo2":-89.0443,"dy":0.0025,"dx":0.0025,"nx":19,"ny":19,"refTime":"2026-05-18T03:00:00:Z","depth":0,"parameterNumber":3,"parameterNumberName":"V-component_of_WINDS"},"data":[0,0,0,3.1082,3.1082,3.1102,3.1102,3.1137,3.1138,0,0,0,0,0,0,0,0,0,0,0,3.1082,3.1083,3.1082,3.1082,3.1102,3.1102,3.1137,3.1138,0,0,0,0,0,0,0,0,0,0,0,3.1082,3.1083,3.1083,3.1082,3.1102,3.1102,3.1137,3.1119,0,0,0,0,0,0,0,0,0,0,3.1098,3.1105,3.1083,3.1083,3.1083,3.1102,3.1102,3.1118,3.112,3.1133,0,3.1147,0,3.1143,3.1141,3.1141,0,0,0,3.1077,3.1103,3.1102,3.1083,3.1083,3.1102,3.1092,3.1119,3.1121,3.1136,3.1147,3.1148,3.1144,3.1141,3.1141,3.1235,3.1236,0,0,3.1076,3.1089,3.1101,3.1104,3.1102,3.1091,3.1092,3.112,3.1133,3.1147,3.1149,3.1144,3.1141,3.1142,3.1235,3.1235,0,0,0,3.1077,3.1089,3.1087,3.1103,3.1106,3.1092,3.1093,3.1131,3.113,3.1149,3.1145,3.1142,3.1142,3.1234,3.1235,3.1281,0,0,0,3.1076,3.1089,3.1087,3.1095,3.1106,3.1119,3.1104,3.1128,3.1131,3.1144,3.1142,3.1143,3.1233,3.1234,3.1278,3.13,0,0,0,3.1079,3.1089,3.1094,3.1096,3.1105,3.1118,3.1118,3.1128,3.1128,3.1141,3.1143,3.1233,3.1234,3.1275,3.1296,3.1329,0,0,0,3.1086,3.1134,3.1095,3.1147,3.1105,3.1147,3.1118,3.1148,3.1165,3.1142,3.1233,3.1235,3.1275,3.1293,3.1326,3.1359,3.1374,0,0,3.1154,3.1143,3.1172,3.1138,3.1191,3.1143,3.1202,3.1204,3.1193,3.1222,3.1224,3.1279,3.1296,3.1328,3.1453,3.1465,0,0,0,3.1198,3.122,3.1231,3.1248,3.1251,3.1256,3.1248,3.125,3.1273,3.1211,3.1299,3.1309,3.1328,3.1343,3.1353,3.1368,3.1242,3.1242,3.1242,3.1312,3.1297,3.1345,3.1333,3.1349,3.1341,3.1353,3.1353,3.1332,3.1353,3.1361,3.1439,3.1457,3.1465,3.1481,3.1377,3.1378,3.1378,3.1378,3.1411,3.1439,3.1411,3.1448,3.1431,3.1462,3.1456,3.144,3.1467,3.1431,3.1447,3.141,3.1478,3.1492,3.1381,3.1381,3.138,3.138,3.138,3.1484,3.1495,3.1496,3.1519,3.1539,3.1524,3.1551,3.1534,3.1519,3.1534,3.1542,3.1541,3.1538,3.1539,3.1539,3.154,3.154,3.154,3.154,3.1559,3.1559,3.1584,3.1593,3.1602,3.1611,3.1605,3.1613,3.1618,3.1604,3.1604,3.1581,3.1488,3.1465,3.1544,3.1544,3.1543,3.1543,3.1542,3.1664,3.1638,3.1676,3.1686,3.1695,3.1716,3.1695,3.1714,3.1719,3.1733,3.1707,3.164,3.1627,3.1619,3.16,3.171,3.171,3.171,3.171,3.1726,3.1718,3.1754,3.177,3.1784,3.1769,3.1814,3.1809,3.1801,3.1803,3.1784,3.1758,3.175,3.1742,3.1731,3.1713,3.1848,3.1849,3.1849,3.179,3.1783,3.1823,3.1815,3.1822,3.1828,3.1869,3.1889,3.1873,3.1854,3.1804,3.1798,3.1755,3.1741,3.172,3.1704,3.167,0,0]}]]